Location: Oregon Trail
(41.1872°N, 102.0741°W)
Time: 09:36:41
(UTC+00:00)

Cosmos 1766 Rocket - Pass Details

Date: 19 November 2019
Orbit: 606 x 632 km, 82.5° (Epoch: 06 December)

Event Time Altitude Azimuth Distance (km) Brightness Sun altitude
Rises 12:04:04 0° 204° (SSW) 2,848 6.8 -18.1°
Reaches altitude 10° 12:06:22 10° 211° (SSW) 1,950 5.9 -17.7°
Maximum altitude 12:10:26 41° 282° (WNW) 890 3.8 -16.9°
Drops below altitude 10° 12:14:34 10° 353° (N) 1,973 6.0 -16.2°
Sets 12:16:55 0° 1° (N) 2,886 6.9 -15.7°
